SCP
0 0 0 0 0 0 0 0 0 0 0 0 0 0 0 0 0 0 0 0 0 0 0 0 0 1 1 0 0 0 0 0 0 0 0 0 0 0 0 0 0 0 0 0 0 0 0 0 0
0 0 0 0 0 0 0 0 0 0 0 0 0 0 0 0 0 0 0 0 0 0 0 0 0 0 0 0 0 0 0 0 0 0 0 0 0 0 0 0 0 0 0 0 0 0 0 0 0
0 0 0 0 0 0 0 0 0 0 0 0 0 0 0 0 0 0 0 0 0 0 0 0 0 0 1 0 0 0 0 0 0 0 0 0 0 0 0 0 0 0 0 0 0 0 0 0 0
0 0 0 0 0 0 0 0 0 0 0 0 0 0 0 0 0 0 0 0 0 0 0 0 0 0 1 0 0 0 0 0 0 0 0 0 0 0 0 0 0 0 0 0 0 0 0 0 0
0 0 0 0 0 0 0 0 0 0 0 0 0 0 0 0 0 0 0 0 0 0 0 0 0 0 1 0 0 0 0 0 0 0 0 0 0 0 0 0 0 0 0 0 0 0 0 0 0
0 0 0 0 0 0 0 0 0 0 0 0 0 0 0 0 0 0 0 0 0 0 0 0 0 0 1 0 0 0 0 0 0 0 0 0 0 0 0 0 0 0 0 0 0 0 0 0 0
0 0 0 0 0 0 0 0 0 0 0 0 0 0 0 0 0 0 0 0 0 0 0 0 0 0 0 0 0 0 0 0 0 0 0 0 0 0 0 0 0 0 0 0 0 0 0 0 0
0 0 0 0 0 0 0 0 0 0 0 0 0 0 0 0 0 0 0 0 0 0 0 0 0 0 0 0 0 0 0 0 0 0 0 0 0 0 0 0 0 0 0 0 0 0 0 0 0
0 0 0 0 0 0 0 0 0 0 0 0 0 0 0 0 0 0 0 0 0 0 0 0 0 0 0 0 0 0 0 0 0 0 0 0 0 0 0 0 0 0 0 0 0 0 0 0 0
0 0 0 0 0 0 0 0 0 0 0 0 0 0 0 0 0 0 0 0 0 0 0 0 0 0 0 0 0 0 0 0 0 0 0 0 0 0 0 0 0 0 0 0 0 0 0 0 0
0 0 0 0 0 0 0 0 0 0 0 0 0 0 0 0 0 0 0 0 0 0 0 0 0 0 0 0 0 0 0 0 0 0 0 0 0 0 0 0 0 0 0 0 0 0 0 0 0
0 0 0 0 0 0 0 0 0 0 0 0 0 0 0 0 0 0 0 0 0 0 0 0 0 0 0 0 0 0 0 0 0 0 0 0 0 0 0 0 0 0 0 0 0 0 0 0 0
0 0 0 0 0 0 0 0 0 0 0 0 0 0 0 0 0 0 0 0 0 0 0 0 0 0 0 0 0 0 0 0 0 0 0 0 0 0 0 0 0 0 0 0 0 0 0 0 0
0 0 0 0 0 0 0 0 0 0 0 0 0 0 0 0 0 0 0 0 0 0 0 0 0 0 0 0 0 0 0 0 0 0 0 0 0 0 0 0 0 0 0 0 0 0 0 0 0
0 0 0 0 0 0 0 0 0 0 0 0 0 0 0 0 0 0 0 0 0 0 0 0 0 0 0 0 0 0 0 0 0 0 0 0 0 0 0 0 0 0 0 0 0 0 0 0 0
0 0 0 0 0 0 0 0 0 0 0 0 0 0 0 0 0 0 0 0 0 0 0 0 0 0 0 0 0 0 0 0 0 0 0 0 0 0 0 0 0 0 0 0 0 0 0 0 0
0 0 0 0 0 0 0 0 0 0 0 0 0 0 0 0 0 0 0 0 0 0 0 0 0 0 0 0 0 0 0 0 0 0 0 0 0 0 0 0 0 0 0 0 0 0 0 0 0
0 0 0 0 0 0 0 0 0 0 0 0 0 0 0 0 0 0 0 0 0 0 0 0 0 0 0 0 0 0 0 0 0 0 0 0 0 0 0 0 0 0 0 0 0 0 0 0 0
0 0 0 0 0 0 0 0 0 0 0 0 0 0 0 0 0 0 0 0 0 0 0 0 0 0 0 0 0 0 0 0 0 0 0 0 0 0 0 0 0 0 0 0 0 0 0 0 0
0 0 0 0 0 0 0 0 0 0 0 0 0 0 0 0 0 0 0 0 0 0 0 0 0 0 0 0 0 0 0 0 0 0 0 0 0 0 0 0 0 0 0 0 0 0 0 0 0
0 0 0 0 0 0 0 0 0 0 0 0 0 0 0 0 0 0 0 0 0 0 0 0 0 0 0 0 0 0 0 0 0 0 0 0 0 0 0 0 0 0 0 0 0 0 0 0 0
0 0 0 0 0 0 0 0 0 0 0 0 0 0 0 0 0 0 0 0 0 0 0 0 0 0 0 0 0 0 0 0 0 0 0 0 0 0 0 0 0 0 0 0 0 0 0 0 0
0 0 0 0 0 0 0 0 0 0 0 0 0 0 0 0 0 0 0 0 0 0 0 0 0 0 0 0 0 0 0 0 0 0 0 0 0 0 0 0 0 0 0 0 0 0 0 0 0
0 0 0 0 0 0 0 0 0 0 0 0 0 0 0 0 0 0 0 0 0 0 0 0 0 0 0 0 0 0 0 0 0 0 0 0 0 0 0 0 0 0 0 0 0 0 0 0 0
0 0 0 0 0 0 0 0 0 0 0 0 0 0 0 0 0 0 0 0 0 0 0 0 0 0 0 0 0 0 0 0 0 0 0 0 0 0 0 0 0 0 0 0 0 0 0 0 0
0 0 0 0 0 0 0 0 0 0 0 0 0 0 0 0 0 0 0 0 0 0 0 0 0 0 0 0 0 0 0 0 0 0 0 0 0 0 0 0 0 0 0 0 0 0 0 0 0
0 0 0 0 0 0 0 0 0 0 0 0 0 0 0 0 0 0 0 0 0 0 0 0 0 0 0 0 0 0 0 0 0 0 0 0 0 0 0 0 0 0 0 0 0 0 0 0 0
0 0 0 0 0 0 0 0 0 0 0 0 0 0 0 0 0 0 0 0 0 0 0 0 0 0 0 0 0 0 0 0 0 0 0 0 0 0 0 0 0 0 0 0 0 0 0 0 0
0 0 0 0 0 0 0 0 0 0 0 0 0 0 0 0 0 0 0 0 0 0 0 0 0 0 0 0 0 0 0 0 0 0 0 0 0 0 0 0 0 0 0 0 0 0 0 0 0
0 0 0 0 0 0 0 0 0 0 0 0 0 0 0 0 0 0 0 0 0 0 0 0 0 0 0 0 0 0 0 0 0 0 0 0 0 0 0 0 0 0 0 0 0 0 0 0 0
Wind_Speed
10 4 3 5 6 5 2 4 3 4 5 4 3 3 2 2 3 5 2 6 3 4 7 10 13 14 14 13 12 11 9 8 7 6 6 7 6 5 3 1 0 1 1 1 4 6 5 2 2
3 3 6 6 5 1 5 4 4 4 4 5 2 1 2 3 3 3 1 6 4 6 7 7 12 13 14 13 12 11 10 9 7 6 6 7 7 6 4 2 2 2 1 2 5 6 6 1 1
3 6 6 5 3 4 4 2 4 7 8 4 2 2 3 3 2 3 3 7 5 6 7 7 12 13 14 13 12 10 9 9 8 7 6 7 8 7 5 3 3 3 3 3 5 5 5 3 1
4 6 6 5 1 4 4 5 6 9 9 3 2 4 4 3 2 2 4 8 8 7 6 7 12 14 14 13 12 11 10 9 8 8 6 7 8 7 6 4 4 4 5 6 6 7 6 5 4
5 5 5 3 4 5 5 6 5 5 6 4 2 3 5 1 1 2 6 8 9 7 6 6 13 15 14 13 13 12 11 10 9 7 5 5 7 7 6 5 5 6 7 8 8 9 9 9 9
5 5 3 3 5 7 6 4 5 4 6 5 3 3 5 1 1 3 6 6 7 7 6 5 13 13 14 14 14 12 12 11 10 8 6 4 5 7 7 7 7 8 8 9 9 9 10 11 12
4 4 2 2 4 6 4 4 5 5 6 5 2 3 6 2 1 3 4 5 5 5 5 5 5 8 12 13 13 12 12 11 10 9 8 5 4 5 7 8 8 9 10 10 10 10 11 11 12
4 4 2 2 3 6 5 7 5 4 6 6 2 3 5 5 1 4 4 4 4 4 5 5 5 5 5 7 11 11 11 10 9 9 8 7 6 5 6 6 8 9 11 11 12 12 12 12 12
3 4 3 5 5 6 4 6 6 4 5 6 3 3 4 4 2 3 3 2 3 4 4 5 5 5 5 5 6 8 9 9 8 7 8 7 4 4 4 6 7 10 11 12 12 13 13 12 11
4 4 8 5 5 4 5 4 5 7 8 6 5 3 2 1 2 5 6 6 6 6 6 6 6 6 5 5 4 3 3 4 4 3 4 4 3 4 5 6 8 11 11 12 13 14 13 9 4
6 7 5 5 5 4 4 5 3 4 7 6 7 10 6 3 5 8 9 7 5 4 5 7 7 6 6 4 3 3 2 3 3 4 5 4 3 3 2 2 3 4 5 5 7 7 4 4 4
5 6 5 5 2 3 4 5 5 6 11 10 8 7 6 7 9 10 7 3 2 4 6 6 7 7 6 5 4 4 3 3 4 5 5 4 3 3 3 2 3 3 3 4 5 5 6 6 6
5 5 4 6 8 6 6 8 7 10 13 11 8 8 8 8 8 4 3 3 4 6 7 8 8 9 7 6 5 5 5 5 5 4 5 5 4 4 4 4 4 4 4 5 6 6 7 7 7
7 6 6 7 8 5 7 11 7 14 9 8 8 9 9 7 4 3 4 6 6 8 8 7 9 10 9 8 7 6 6 5 4 5 6 6 5 5 4 4 4 5 5 6 6 7 7 7 6
4 2 6 7 7 5 3 11 11 11 5 6 7 7 5 4 3 3 4 4 5 7 7 8 9 9 10 11 10 7 6 5 5 5 6 7 6 5 5 5 5 6 5 6 6 6 6 7 7
5 2 4 7 4 4 3 13 16 4 3 4 5 4 4 6 6 5 6 5 6 6 7 6 7 8 10 10 8 6 5 6 5 4 4 6 6 6 5 5 7 6 4 5 5 5 6 8 7
4 4 4 7 3 2 4 11 12 2 2 3 1 2 3 5 8 7 7 7 6 6 7 6 3 4 6 7 5 4 3 4 3 3 3 4 5 5 5 6 7 5 4 5 6 6 5 8 9
7 5 4 7 4 1 5 12 19 4 2 2 2 2 3 6 7 6 7 7 6 6 7 7 7 5 0 2 1 0 1 1 2 2 3 4 4 5 5 5 7 5 4 5 5 8 7 8 10
7 6 6 7 4 3 8 13 18 10 3 4 4 3 3 5 4 6 8 8 7 9 9 9 11 8 5 3 2 1 1 2 2 2 3 3 4 4 3 4 5 5 5 7 7 7 8 8 6
4 4 4 6 2 3 7 11 11 6 4 5 6 5 3 4 5 7 8 8 8 8 10 12 12 11 8 4 3 3 3 3 3 5 7 7 7 6 5 4 4 5 5 6 7 7 6 7 5
5 5 5 5 8 5 5 10 8 4 1 4 5 4 4 5 5 4 5 6 7 9 10 10 11 12 11 8 5 5 5 4 5 6 6 8 8 9 9 8 6 6 5 5 6 6 7 8 6
7 5 4 4 3 5 3 7 9 4 1 3 4 5 5 4 4 4 4 6 7 7 7 9 10 12 11 9 10 10 8 6 5 3 4 6 8 9 9 8 8 7 6 6 7 7 6 7 7
5 4 5 4 3 4 2 5 11 3 5 6 6 6 5 5 5 5 5 6 5 6 7 8 10 11 10 10 9 9 8 5 4 5 7 8 7 8 10 9 8 7 6 6 7 7 6 4 5
5 5 4 3 2 5 6 6 10 6 7 7 7 7 7 6 5 5 4 6 6 6 7 7 10 10 9 10 10 10 9 8 9 8 8 6 5 5 9 9 8 7 7 7 7 7 7 6 6
4 5 1 1 1 8 3 5 12 7 5 8 13 11 8 7 6 5 6 6 6 7 7 7 10 10 8 10 11 10 9 8 9 7 7 7 6 5 9 8 8 8 8 8 7 7 7 7 7
9 9 7 7 5 5 2 8 11 4 4 6 8 10 8 7 6 6 6 6 6 7 7 7 9 8 8 9 9 8 8 6 5 6 5 6 5 5 8 9 9 9 9 9 8 7 7 7 7
9 7 5 5 2 3 6 8 11 1 4 2 9 10 9 8 7 6 5 6 6 7 6 6 8 8 7 7 7 7 7 6 6 5 5 4 5 6 8 8 8 9 9 9 9 7 9 8 7
8 11 6 5 3 4 6 5 5 6 3 2 7 10 8 7 6 6 5 6 6 6 6 6 7 7 7 6 6 6 6 6 6 5 6 6 6 7 7 8 8 9 9 9 9 9 9 9 8
6 5 5 6 5 4 3 7 5 6 5 6 7 6 7 8 7 6 6 6 6 6 6 6 7 7 6 6 6 7 6 6 6 6 6 6 6 7 7 8 9 9 9 10 10 10 9 11 11
7 9 9 7 5 5 3 9 5 5 5 4 6 5 6 7 6 6 7 6 6 6 6 6 6 6 6 5 6 6 6 6 6 6 6 6 6 6 7 8 8 9 9 10 10 10 10 11 12
Wind_Direction
339 6 57 53 54 53 235 250 251 294 290 290 301 277 241 236 228 258 308 154 164 152 168 193 186 178 170 166 163 162 169 178 191 201 194 189 176 170 170 148 228 223 196 289 309 322 298 284 251
347 25 50 56 83 87 263 254 264 261 264 295 276 282 285 260 231 259 249 182 177 161 164 184 186 181 173 169 166 169 179 188 199 211 210 197 179 168 176 192 249 274 261 273 290 304 298 274 333
39 50 71 68 105 191 247 266 276 292 285 263 261 250 248 246 227 232 210 167 156 161 161 175 185 184 174 173 171 177 189 197 207 215 228 213 189 173 178 198 239 255 262 264 270 279 306 274 287
46 41 54 67 249 235 251 283 292 307 310 269 224 281 258 236 222 212 159 148 151 164 163 175 185 182 177 178 178 184 193 201 210 220 239 219 198 186 189 201 227 234 246 251 259 255 273 270 254
53 66 49 11 279 273 270 275 303 310 291 293 212 268 272 233 281 149 148 153 158 164 169 182 191 186 184 186 187 192 198 203 211 222 224 216 207 198 194 205 226 233 239 246 252 256 256 259 263
47 62 65 300 286 287 275 270 314 303 286 284 228 246 263 329 219 168 163 164 165 164 170 186 199 194 192 194 195 197 202 207 213 216 210 210 216 208 206 215 231 243 246 250 255 259 264 263 265
99 102 179 244 281 289 269 316 320 303 298 282 257 236 284 303 226 148 165 166 163 167 169 186 204 201 199 199 202 204 207 212 217 219 218 216 223 231 236 234 240 250 255 255 255 258 264 268 270
123 112 180 238 249 269 287 325 301 279 283 281 227 237 285 333 131 124 138 164 174 176 185 191 200 202 202 205 207 210 214 217 222 228 223 209 209 222 243 254 255 258 264 263 261 262 266 272 277
96 94 215 225 219 253 293 331 306 277 287 292 247 241 278 309 122 136 147 162 192 197 195 194 199 203 201 202 213 215 220 224 228 240 227 209 213 225 243 253 255 261 270 273 272 272 274 277 281
117 177 225 220 206 241 297 299 290 311 320 305 307 285 319 350 188 208 212 207 203 200 199 197 202 206 202 207 206 211 216 226 229 225 224 211 212 227 237 256 263 270 278 282 281 280 280 284 288
171 204 235 248 235 249 279 282 266 281 288 264 282 301 314 243 229 235 237 226 219 210 204 202 208 207 202 205 199 205 209 218 226 223 221 217 218 236 256 284 297 293 289 281 280 285 280 273 264
185 237 238 261 252 246 262 279 276 233 242 256 268 290 291 254 235 234 251 278 266 226 221 208 208 209 207 205 207 209 208 213 218 220 217 211 219 227 231 231 238 243 240 245 246 247 249 251 251
199 250 251 250 268 261 264 255 253 251 254 274 292 289 282 267 254 269 309 296 250 241 234 218 207 209 207 206 213 214 216 218 220 220 218 211 215 224 224 228 229 233 232 235 242 245 248 251 254
206 228 271 286 281 270 258 268 253 257 256 285 295 295 298 287 277 269 267 263 254 247 240 224 212 210 206 209 214 218 217 218 218 221 224 218 221 227 231 240 241 241 237 240 243 246 251 256 255
170 223 290 278 274 269 271 287 248 257 268 287 310 319 337 10 14 351 331 310 300 284 267 238 222 208 208 213 215 218 214 211 220 225 224 223 223 228 235 247 249 246 238 240 247 251 252 259 256
149 183 262 276 272 264 195 271 279 290 245 303 343 9 48 49 41 23 9 358 343 328 311 274 243 209 208 213 213 216 208 212 226 227 226 227 229 228 234 248 258 254 240 238 246 250 252 258 259
156 189 227 279 262 252 209 261 281 49 355 320 352 43 51 45 26 12 5 1 354 347 345 344 309 239 216 212 212 215 210 221 237 245 250 250 247 241 240 255 266 267 254 249 255 259 245 265 269
179 182 214 248 276 252 248 261 277 279 296 273 158 111 67 56 26 4 8 9 10 10 14 19 22 10 307 168 168 208 287 292 296 285 274 268 259 251 244 259 272 278 274 271 260 265 263 265 274
162 174 218 250 268 286 265 268 276 288 260 214 172 152 97 67 28 22 22 17 22 22 25 28 33 25 41 67 77 72 1 344 340 329 311 302 292 283 266 274 284 285 277 280 279 276 278 277 274
155 181 242 282 294 254 283 279 272 275 243 197 171 165 132 92 52 33 26 25 28 28 28 36 37 34 36 52 67 79 78 50 39 31 31 25 24 19 15 354 334 325 313 309 305 296 288 284 265
195 201 230 275 331 334 323 300 295 300 79 118 135 146 140 124 106 73 47 38 35 34 31 41 41 41 39 41 54 52 49 42 30 25 28 28 37 37 32 25 16 5 360 343 332 325 312 307 297
217 212 217 271 325 298 355 305 290 280 197 153 147 151 153 141 129 112 85 60 46 38 38 48 49 48 42 46 60 64 64 57 29 20 23 23 28 29 22 16 10 3 359 352 346 348 336 329 325
187 186 197 223 217 274 279 257 279 275 226 212 192 186 180 168 151 128 100 82 61 49 52 54 57 52 46 51 58 67 64 55 36 28 27 22 16 20 16 9 4 357 350 342 338 337 334 327 319
127 95 80 57 97 271 230 204 276 241 217 202 190 191 188 178 161 131 105 89 71 59 59 60 66 55 47 54 54 58 56 44 37 27 20 12 5 5 10 2 358 350 346 339 333 326 321 313 307
144 128 120 272 257 250 225 209 251 252 224 198 183 184 184 183 165 145 122 98 86 75 69 66 71 60 49 57 55 51 51 47 40 25 15 9 2 356 358 355 350 348 341 335 332 325 319 309 310
177 165 173 192 220 273 219 233 254 272 281 232 175 163 166 178 175 160 137 117 105 94 80 74 74 66 55 60 58 51 49 47 37 25 16 9 358 346 349 347 345 341 338 336 333 324 318 317 312
158 193 176 135 202 268 268 275 299 286 14 123 153 156 172 178 176 162 134 119 112 99 84 81 81 71 59 60 65 53 46 42 31 20 14 4 353 348 345 339 339 337 335 334 332 325 321 321 320
157 151 138 159 195 255 286 280 270 311 322 179 177 174 173 168 168 154 131 120 107 98 88 77 75 74 65 58 56 55 39 32 23 17 9 358 348 343 338 339 337 335 334 332 329 327 323 331 327
125 142 147 149 163 175 274 279 243 271 273 217 202 185 170 169 169 153 131 121 108 93 82 75 69 68 61 56 51 45 31 22 16 12 0 349 341 338 339 337 336 335 334 331 328 325 331 328 321
157 165 149 159 201 177 186 271 295 295 277 194 171 168 173 174 160 140 133 124 109 95 84 76 68 62 55 52 48 38 23 13 9 0 349 343 340 336 335 333 332 332 331 325 320 322 328 319 318